パンスターズ彗星

C/2021 G3 ( PanSTARRS )

English version
Home page
Updated on July 16, 2022

---------------------------------------------------------------------

・ プロフィール

発見日 2021年4月1日
発見光度 22.1等
発見者 Pan-STARRS 1 telescope (Haleakala)

・ 軌道要素

Epoch 2022 Aug. 9.0 TT = JDT 2459800.5
T 2021 Oct. 18.40848 TT                                 Rudenko
q   5.1808168            (2000.0)            P               Q
z  -0.0001523      Peri.   10.62532     -0.80602114     +0.27335672
 +/-0.0000368      Node   147.41614     +0.44590034     -0.30284257
e   1.0007891      Incl.  102.88071     +0.38923361     +0.91299643
From 19 observations 2022 Jan. 4-June 1, mean residual 0".3.

・ 光度変化

        m1 = 11.0 + 5 logΔ + 10.0 log r

---------------------------------------------------------------------

軌道要素はM.P.E.C. 2022-M21に掲載されたものです。
光度グラフはComet for Windowsで作成したものです。

---------------------------------------------------------------------

Copyright(C) Seiichi Yoshida (comet@aerith.net). All rights reserved.